Savoonga, AK

10:29 PM AKDT on September 19, 2017 (GMT -0800)
Savoonga

Weather History for PASA - August, 2014

Change the Weather History Date:

Sunday, August 10, 2014

  Actual Average Record
Temperature  
Mean Temperature 76 °F -  
Max Temperature 109 °F 49 °F 109 °F (2014)
Min Temperature 44 °F 43 °F 37 °F (2008)
Cooling Degree Days 12    
Growing Degree Days 26 (Base 50)    
Moisture  
Dew Point 46 °F    
Average Humidity 83    
Maximum Humidity 94    
Minimum Humidity 12    
Precipitation  
Precipitation 0.00 in - - ()
Sea Level Pressure  
Sea Level Pressure 29.67 in    
Wind  
Wind Speed 5 mph (NE)    
Max Wind Speed 14 mph    
Max Gust Speed -    
Visibility 6 miles    
Events      
Averages and records for this station are not official NWS values.
T = Trace of Precipitation, MM = Missing Value Source: NWS Daily Summary

Daily Weather History Graph

Daily Weather History Graph

Search for Another Location

Airport or City:

Trip Planner

Search our weather history database for the weather conditions in past years. The results will help you decide how hot, cold, wet, or windy it might be!

Date:

Astronomy

Aug. 10, 2014 Rise Set
Actual Time 7:01 AM AKDT 11:50 PM AKDT
Civil Twilight 5:53 AM AKDT 12:57 AM AKDT
Nautical Twilight 3:59 AM AKDT 2:54 AM AKDT
Astronomical Twilight Sun does not set Sun does not set
Moon 11:07 PM AKDT (8/10) 7:35 AM AKDT (8/10)
Length of Visible Light 19h 04m
Length of Day
16h 48m
Full, 100% of the Moon is Illuminated
Aug 10
Full
Aug 17
Last Quarter
Aug 25
New
Sep 2
First Quarter
Sep 8
Full

Hourly Weather History & Observations

Time (AKDT) Temp. Windchill Dew Point Humidity Pressure Visibility Wind Dir Wind Speed Gust Speed Precip Events Conditions
12:16 AM 46.4 °F 43.5 °F 42.8 °F 87% 29.69 in 7.0 mi North 5.8 mph - N/A   Overcast
12:36 AM 46.4 °F 45.2 °F 42.8 °F 87% 29.69 in 8.0 mi NNW 3.5 mph - N/A   Overcast
12:56 AM 46.4 °F 43.5 °F 42.8 °F 87% 29.69 in 7.0 mi NNW 5.8 mph - N/A   Overcast
1:16 AM 46.4 °F 44.3 °F 42.8 °F 87% 29.69 in 8.0 mi NNW 4.6 mph - N/A   Overcast
1:36 AM 46.4 °F 44.3 °F 42.8 °F 87% 29.69 in 7.0 mi NNW 4.6 mph - N/A   Overcast
1:56 AM 46.4 °F 43.5 °F 42.8 °F 87% 29.69 in 7.0 mi NNW 5.8 mph - N/A   Overcast
2:16 AM 46.4 °F 45.2 °F 42.8 °F 87% 29.69 in 8.0 mi NW 3.5 mph - N/A   Overcast
2:36 AM 46.4 °F 45.2 °F 42.8 °F 87% 29.69 in 8.0 mi NNW 3.5 mph - N/A   Overcast
2:56 AM 46.4 °F - 42.8 °F 87% 29.69 in 7.0 mi Calm Calm - N/A   Overcast
3:16 AM 46.4 °F - 42.8 °F 87% 29.69 in 7.0 mi Calm Calm - N/A   Overcast
3:36 AM 46.4 °F 45.2 °F 42.8 °F 87% 29.69 in 7.0 mi NNW 3.5 mph - N/A   Overcast
3:56 AM 46.4 °F - 42.8 °F 87% 29.69 in 6.0 mi Calm Calm - N/A   Overcast
4:16 AM 46.4 °F - 42.8 °F 87% 29.68 in 7.0 mi Calm Calm - N/A   Overcast
4:36 AM 46.4 °F 45.2 °F 42.8 °F 87% 29.68 in 7.0 mi NNW 3.5 mph - N/A   Overcast
4:56 AM 46.4 °F - 42.8 °F 87% 29.68 in 6.0 mi Calm Calm - N/A   Overcast
5:16 AM 46.4 °F - 42.8 °F 87% 29.68 in 6.0 mi Calm Calm - N/A   Overcast
5:36 AM 46.4 °F - 42.8 °F 87% 29.68 in 6.0 mi Calm Calm - N/A   Overcast
5:56 AM 46.4 °F - 42.8 °F 87% 29.67 in 5.0 mi Calm Calm - N/A   Overcast
6:16 AM 44.6 °F - 42.8 °F 93% 29.67 in 6.0 mi Calm Calm - N/A   Overcast
6:36 AM 44.6 °F - 42.8 °F 93% 29.67 in 5.0 mi Calm Calm - N/A   Overcast
6:56 AM 44.6 °F - 42.8 °F 93% 29.67 in 5.0 mi Calm Calm - N/A   Overcast
7:16 AM 46.4 °F 44.3 °F 42.8 °F 87% 29.67 in 5.0 mi SW 4.6 mph - N/A   Overcast
7:36 AM 46.4 °F 44.3 °F 42.8 °F 87% 29.67 in 3.0 mi SSW 4.6 mph - N/A   Overcast
7:56 AM 46.4 °F 44.3 °F 42.8 °F 87% 29.67 in 2.0 mi South 4.6 mph - N/A   Overcast
8:16 AM 46.4 °F - 44.6 °F 93% 29.67 in 4.0 mi Calm Calm - N/A   Overcast
8:36 AM 46.4 °F - 44.6 °F 93% 29.67 in 4.0 mi Calm Calm - N/A   Overcast
8:56 AM 46.4 °F - 44.6 °F 93% 29.67 in 5.0 mi Calm Calm - N/A   Overcast
9:16 AM 48.2 °F - 44.6 °F 87% 29.67 in 5.0 mi ESE 3.5 mph - N/A   Overcast
9:36 AM 48.2 °F - 44.6 °F 87% 29.67 in 5.0 mi East 4.6 mph - N/A   Overcast
9:56 AM 48.2 °F - 44.6 °F 87% 29.67 in 5.0 mi ENE 3.5 mph - N/A   Overcast
10:16 AM 48.2 °F - 44.6 °F 87% 29.67 in 3.0 mi ENE 3.5 mph - N/A   Overcast
10:36 AM 48.2 °F - 46.4 °F 93% 29.67 in 3.0 mi East 4.6 mph - N/A   Overcast
10:56 AM 48.2 °F - 46.4 °F 93% 29.67 in 3.0 mi ENE 4.6 mph - N/A   Overcast
11:16 AM 48.2 °F - 46.4 °F 93% 29.67 in 4.0 mi ENE 5.8 mph - N/A   Overcast
11:36 AM 50.0 °F - 46.4 °F 87% 29.67 in 4.0 mi ENE 4.6 mph - N/A   Overcast
11:56 AM 51.8 °F - 46.4 °F 82% 29.67 in 5.0 mi NE 4.6 mph - N/A   Overcast
12:16 PM 51.8 °F - 46.4 °F 82% 29.67 in 5.0 mi NE 6.9 mph - N/A   Overcast
12:36 PM 50.0 °F - 46.4 °F 87% 29.67 in 4.0 mi NE 6.9 mph - N/A   Overcast
12:56 PM 51.8 °F - 46.4 °F 82% 29.67 in 5.0 mi NE 6.9 mph - N/A   Overcast
1:16 PM 51.8 °F - 46.4 °F 82% 29.68 in 5.0 mi NE 10.4 mph - N/A   Overcast
1:36 PM 51.8 °F - 46.4 °F 82% 29.68 in 5.0 mi NE 5.8 mph - N/A   Overcast
1:56 PM 51.8 °F - 46.4 °F 82% 29.68 in 5.0 mi ENE 4.6 mph - N/A   Overcast
2:16 PM 51.8 °F - 46.4 °F 82% 29.67 in 5.0 mi NE 8.1 mph - N/A   Overcast
2:56 PM 51.8 °F - 46.4 °F 82% 29.68 in 6.0 mi NE 9.2 mph - N/A   Overcast
3:16 PM 51.8 °F - 46.4 °F 82% 29.67 in 6.0 mi NE 9.2 mph - N/A   Overcast
3:36 PM 51.8 °F - 48.2 °F 88% 29.67 in 6.0 mi NE 9.2 mph - N/A   Overcast
3:56 PM 51.8 °F - 48.2 °F 88% 29.67 in 7.0 mi NE 9.2 mph - N/A   Overcast
4:56 PM 55.4 °F - 48.2 °F 77% 29.67 in 7.0 mi ENE 10.4 mph - N/A   Overcast
5:16 PM 53.6 °F - 48.2 °F 82% 29.67 in 7.0 mi NE 9.2 mph - N/A   Overcast
5:36 PM 53.6 °F - 48.2 °F 82% 29.67 in 7.0 mi NE 9.2 mph - N/A   Overcast
5:56 PM 53.6 °F - 48.2 °F 82% 29.66 in 7.0 mi NE 10.4 mph - N/A   Overcast
6:16 PM 53.6 °F - 48.2 °F 82% 29.66 in 7.0 mi ENE 10.4 mph - N/A   Overcast
6:36 PM 80.6 °F - 46.4 °F 30% 29.66 in 6.0 mi ENE 11.5 mph - N/A   Mostly Cloudy
6:56 PM 53.6 °F - 48.2 °F 82% 29.66 in 7.0 mi ENE 11.5 mph - N/A   Partly Cloudy
7:16 PM 60.8 °F - 50.0 °F 68% 29.65 in 8.0 mi ENE 13.8 mph - N/A   Clear
7:36 PM 109.4 °F - 46.4 °F 12% 29.65 in 7.0 mi ENE 12.7 mph - N/A   Clear
7:56 PM 93.2 °F - 46.4 °F 20% 29.65 in 7.0 mi ENE 13.8 mph - N/A   Clear
8:16 PM 53.6 °F - 48.2 °F 82% 29.65 in 8.0 mi ENE 13.8 mph - N/A   Mostly Cloudy
8:36 PM 57.2 °F - 48.2 °F 72% 29.66 in 7.0 mi ENE 11.5 mph - N/A   Mostly Cloudy
8:56 PM 51.8 °F - 48.2 °F 88% 29.65 in 7.0 mi ENE 10.4 mph - N/A   Overcast
9:16 PM 53.6 °F - 48.2 °F 82% 29.66 in 7.0 mi ENE 11.5 mph - N/A   Scattered Clouds
9:36 PM 51.8 °F - 48.2 °F 88% 29.66 in 7.0 mi ENE 11.5 mph - N/A   Clear
9:56 PM 51.8 °F - 48.2 °F 88% 29.66 in 6.0 mi ENE 8.1 mph - N/A   Clear
10:16 PM 51.8 °F - 48.2 °F 88% 29.65 in 5.0 mi ENE 9.2 mph - N/A   Clear
10:36 PM 51.8 °F - 48.2 °F 88% 29.65 in 5.0 mi ENE 8.1 mph - N/A   Clear
10:56 PM 51.8 °F - 48.2 °F 88% 29.66 in 5.0 mi ENE 8.1 mph - N/A   Clear
11:16 PM 51.8 °F - 48.2 °F 88% 29.66 in 4.0 mi ENE 8.1 mph - N/A   Clear
11:36 PM 51.8 °F - 48.2 °F 88% 29.66 in 2.5 mi ENE 8.1 mph - N/A   Clear
11:56 PM 50.0 °F - 48.2 °F 94% 29.66 in 1.2 mi ENE 9.2 mph - N/A   Clear